Fort Wayne, IN

5:50 PM EDT on October 17, 2017 (GMT -0400)
Fort Wayne International

Weather History for KFWA - September, 2012

Change the Weather History Date:

Saturday, September 8, 2012

  Actual Average Record
Temperature  
Mean Temperature 62 °F 67 °F  
Max Temperature 71 °F 79 °F 96 °F (1922)
Min Temperature 52 °F 56 °F 39 °F (1986)
Degree Days  
Heating Degree Days 3 2  
Month to date heating degree days 3 9  
Since 1 July heating degree days 8 21  
Cooling Degree Days 0 4  
Month to date cooling degree days 69 36  
Year to date cooling degree days 1096 753  
Growing Degree Days 12 (Base 50)    
Moisture  
Dew Point 55 °F    
Average Humidity 76    
Maximum Humidity 100    
Minimum Humidity 51    
Precipitation  
Precipitation 0.43 in 0.09 in 1.60 in (1942)
Month to date precipitation 2.53 0.77  
Year to date precipitation 21.39 27.61  
Snow  
Snow 0.00 in 0.00 in 0.00 in (2002)
Month to date snowfall 0.0 0.0  
Since 1 July snowfall 0.0 0.0  
Since 1 September snowfall 0.0  
Snow Depth 0.00 in    
Sea Level Pressure  
Sea Level Pressure 29.79 in    
Wind  
Wind Speed 8 mph (NW)    
Max Wind Speed 22 mph    
Max Gust Speed 28 mph    
Visibility 8 miles    
Events Rain    
T = Trace of Precipitation, MM = Missing Value Source: NWS Daily Summary

Daily Weather History Graph

Daily Weather History Graph

Search for Another Location

Airport or City:

Trip Planner

Search our weather history database for the weather conditions in past years. The results will help you decide how hot, cold, wet, or windy it might be!

Date:

Astronomy

Sep. 08, 2012 Rise Set
Actual Time 7:14 AM EDT 8:00 PM EDT
Civil Twilight 6:47 AM EDT 8:28 PM EDT
Nautical Twilight 6:14 AM EDT 9:01 PM EDT
Astronomical Twilight 5:39 AM EDT 9:35 PM EDT
Moon No Moon Rise 2:59 PM EDT (9/8)
Length of Visible Light 13h 41m
Length of Day
12h 45m
Waning Gibbous, 49% of the Moon is Illuminated
Sep 8
Waning Gibbous
Sep 15
New
Sep 22
First Quarter
Sep 29
Full
Oct 8
Last Quarter

Hourly Weather History & Observations

Time (EDT) Temp. Dew Point Humidity Pressure Visibility Wind Dir Wind Speed Gust Speed Precip Events Conditions
12:54 AM 66.0 °F 64.9 °F 96% 29.68 in 7.0 mi Calm Calm - 0.05 in Rain Rain
1:13 AM 66.2 °F 64.4 °F 94% 29.69 in 6.0 mi NW 5.8 mph - 0.02 in Rain Light Rain
1:24 AM 66.2 °F 64.4 °F 94% 29.69 in 5.0 mi NW 5.8 mph - 0.04 in Rain Rain
1:33 AM 64.4 °F 62.6 °F 94% 29.70 in 0.8 mi North 21.9 mph 27.6 mph 0.09 in Rain Heavy Rain
1:48 AM 62.6 °F 60.8 °F 94% 29.70 in 2.5 mi North 16.1 mph 25.3 mph 0.24 in Rain Light Rain
1:54 AM 63.0 °F 61.0 °F 93% 29.70 in 4.0 mi North 12.7 mph 25.3 mph 0.25 in Rain Rain
2:17 AM 62.6 °F 60.8 °F 94% 29.70 in 5.0 mi NNW 10.4 mph - 0.02 in Rain Light Rain
2:38 AM 60.8 °F 57.2 °F 88% 29.72 in 4.0 mi North 16.1 mph 25.3 mph 0.07 in Rain Heavy Rain
2:54 AM 59.0 °F 57.0 °F 93% 29.72 in 4.0 mi North 15.0 mph 23.0 mph 0.09 in Rain Light Rain
3:11 AM 57.2 °F 55.4 °F 94% 29.73 in 4.0 mi North 11.5 mph - 0.08 in Rain Heavy Rain
3:54 AM 57.0 °F 55.0 °F 93% 29.74 in 10.0 mi NNW 10.4 mph - 0.10 in   Overcast
4:54 AM 57.9 °F 55.0 °F 90% 29.74 in 10.0 mi NNW 8.1 mph - 0.00 in   Overcast
5:54 AM 57.0 °F 55.0 °F 93% 29.74 in 10.0 mi NW 5.8 mph - 0.00 in   Mostly Cloudy
6:54 AM 55.0 °F 54.0 °F 96% 29.77 in 10.0 mi West 3.5 mph - N/A   Scattered Clouds
7:54 AM 55.9 °F 55.0 °F 97% 29.80 in 10.0 mi West 5.8 mph - N/A   Mostly Cloudy
8:54 AM 59.0 °F 55.9 °F 90% 29.81 in 10.0 mi WNW 6.9 mph - N/A   Scattered Clouds
9:54 AM 62.1 °F 55.9 °F 80% 29.83 in 10.0 mi NW 9.2 mph - N/A   Scattered Clouds
10:54 AM 63.0 °F 54.0 °F 72% 29.84 in 10.0 mi NW 9.2 mph - N/A   Mostly Cloudy
11:54 AM 66.9 °F 55.9 °F 68% 29.84 in 10.0 mi North 9.2 mph - N/A   Mostly Cloudy
12:54 PM 68.0 °F 54.0 °F 61% 29.84 in 10.0 mi NW 13.8 mph 20.7 mph N/A   Scattered Clouds
1:54 PM 68.0 °F 52.0 °F 56% 29.84 in 10.0 mi NW 9.2 mph - N/A   Scattered Clouds
2:54 PM 68.0 °F 52.0 °F 56% 29.84 in 10.0 mi West 15.0 mph - N/A   Mostly Cloudy
3:54 PM 68.0 °F 52.0 °F 56% 29.84 in 10.0 mi WNW 12.7 mph - N/A   Scattered Clouds
4:54 PM 69.1 °F 51.1 °F 53% 29.83 in 10.0 mi West 15.0 mph 23.0 mph N/A   Partly Cloudy
5:54 PM 69.1 °F 50.0 °F 51% 29.84 in 10.0 mi West 12.7 mph - N/A   Partly Cloudy
6:54 PM 66.9 °F 50.0 °F 54% 29.85 in 10.0 mi West 12.7 mph 19.6 mph N/A   Partly Cloudy
7:54 PM 62.1 °F 51.1 °F 67% 29.86 in 10.0 mi WNW 4.6 mph - N/A   Partly Cloudy
8:54 PM 61.0 °F 51.1 °F 70% 29.89 in 10.0 mi Calm Calm - N/A   Overcast
9:54 PM 55.9 °F 51.1 °F 84% 29.89 in 10.0 mi Calm Calm - N/A   Partly Cloudy
10:54 PM 54.0 °F 51.1 °F 90% 29.90 in 10.0 mi Calm Calm - N/A   Partly Cloudy
11:54 PM 53.1 °F 51.1 °F 93% 29.89 in 10.0 mi South 4.6 mph - N/A   Partly Cloudy